Simultaneous Nadir Overpasses (SNOs) Predictions

Prediction of SNOs between GOES-16 and TERRA Satellite Orbit:

Table of predicted SNOs for the next 14.0 days since TLE Epoch: 3/9/2024
Index Date Time (GOES-16) GOES-16 Lat,Lon TERRA Lat,Lon Distance(km) Time Diff (sec)
1 03/11/2024 02:56:22 -0.05, -75.20 -0.10, -75.56 40.12 80
2 03/13/2024 02:36:42 -0.05, -75.22 0.73, -71.45 427.57 80
3 03/13/2024 14:59:24 0.05, -75.24 0.28, -76.33 123.06 80
4 03/15/2024 14:39:44 0.05, -75.26 -0.58, -72.22 345.09 80
5 03/16/2024 03:02:33 -0.05, -75.25 -0.46, -77.12 213.30 80
6 03/18/2024 02:42:53 -0.04, -75.27 0.43, -73.03 255.51 80
7 03/18/2024 15:02:55 0.04, -75.30 0.57, -77.90 294.94 80
8 03/20/2024 14:48:34 0.03, -75.34 -0.28, -73.79 175.04 80
9 03/21/2024 03:08:43 -0.03, -75.33 -0.74, -78.69 382.64 80
